Castlegar, British Columbia

2:37 PM PDT on April 27, 2017 (GMT -0700)
Castlegar

Weather History for CYCG - October, 2012

Change the Weather History Date:

Tuesday, October 9, 2012

  Actual Average Record
Temperature  
Mean Temperature 54 °F -  
Max Temperature 64 °F 48 °F 68 °F (2002)
Min Temperature 44 °F 35 °F 32 °F (2006)
Degree Days  
Heating Degree Days 11    
Growing Degree Days 4 (Base 50)    
Moisture  
Dew Point 40 °F    
Average Humidity 66    
Maximum Humidity 93    
Minimum Humidity 40    
Precipitation  
Precipitation 0.00 in 0.08 in - ()
Sea Level Pressure  
Sea Level Pressure 30.10 in    
Wind  
Wind Speed 3 mph ()    
Max Wind Speed 13 mph    
Max Gust Speed -    
Visibility 14.1 miles    
Events Fog    
Averages and records for this station are not official NWS values.
T = Trace of Precipitation, MM = Missing Value Source: Averaged Metar Reports

Daily Weather History Graph

Daily Weather History Graph

Search for Another Location

Airport or City:

Trip Planner

Search our weather history database for the weather conditions in past years. The results will help you decide how hot, cold, wet, or windy it might be!

Date:

Astronomy

Oct. 09, 2012 Rise Set
Actual Time 7:03 AM PDT 6:11 PM PDT
Civil Twilight 6:31 AM PDT 6:43 PM PDT
Nautical Twilight 5:54 AM PDT 7:19 PM PDT
Astronomical Twilight 5:17 AM PDT 7:56 PM PDT
Moon 12:13 AM PDT (10/9) 3:09 PM PDT (10/9)
Length of Visible Light 12h 11m
Length of Day
11h 07m
Waning Crescent, 35% of the Moon is Illuminated
Oct 9
Waning Crescent
Oct 15
New
Oct 21
First Quarter
Oct 29
Full
Nov 6
Last Quarter

Hourly Weather History & Observations

Time (PDT) Temp. Dew Point Humidity Pressure Visibility Wind Dir Wind Speed Gust Speed Precip Events Conditions
5:00 AM 45 °F 40 °F 78% 30.35 in - ENE 6.9 mph - -  
6:00 AM 35.6 °F 33.8 °F 93% 30.11 in 15.0 mi Calm Calm - N/A   Clear
7:00 AM 37.4 °F 35.6 °F 93% 30.13 in 15.0 mi Calm Calm - N/A   Scattered Clouds
7:29 AM - - N/A% - 0.5 mi Calm Calm - N/A Fog Fog
8:00 AM 39.2 °F 37.4 °F 93% 30.14 in 15.0 mi Calm Calm - N/A Fog Mostly Cloudy
9:00 AM 44.6 °F 41.0 °F 87% 30.15 in 15.0 mi Calm Calm - N/A   Mostly Cloudy
10:00 AM 50.0 °F 41.0 °F 71% 30.15 in 15.0 mi North 2.3 mph - N/A   Mostly Cloudy
11:00 AM 51 °F 43 °F 65% 30.26 in - NE 8.1 mph - -  
11:00 AM 53.6 °F 41.0 °F 62% 30.13 in 15.0 mi NW 6.9 mph - N/A   Mostly Cloudy
12:00 PM 59.0 °F 41.0 °F 51% 30.11 in 15.0 mi Calm Calm - N/A   Mostly Cloudy
1:00 PM 60.8 °F 41.0 °F 48% 30.09 in 15.0 mi Calm Calm - N/A   Mostly Cloudy
2:00 PM 64.4 °F 41.0 °F 42% 30.05 in 15.0 mi NW 4.6 mph - N/A   Scattered Clouds
3:00 PM 66.2 °F 41.0 °F 40% 30.03 in 15.0 mi NNW 5.8 mph - N/A   Partly Cloudy
4:00 PM 66.2 °F 41.0 °F 40% 30.01 in 15.0 mi North 3.5 mph - N/A   Partly Cloudy
5:00 PM 50 °F 44 °F 75% 30.18 in - NE 12.7 mph - -  
5:00 PM 64.4 °F 41.0 °F 42% 30.01 in 15.0 mi North 4.6 mph - N/A   Clear
6:00 PM 59.0 °F 39.2 °F 48% 30.00 in 15.0 mi NNE 3.5 mph - N/A   Clear
7:00 PM 55.4 °F 41.0 °F 58% 30.01 in 15.0 mi Calm Calm - N/A   Clear
8:00 PM 48.2 °F 39.2 °F 71% 30.04 in 15.0 mi Calm Calm - N/A   Clear
9:00 PM 46.4 °F 37.4 °F 71% 30.05 in 15.0 mi Calm Calm - N/A   Clear
11:00 PM 49 °F 47 °F 88% 30.09 in - ENE 9.2 mph - -